| time (UTC) | temp F | wind direction | speed MPH | gust MPH | rain 1hr in | rain 24hr in | rain mn in | humidity % | barometer mb |
| 20260509185231 | 53 | 26 | 0.0 | 1.0 | 0.00 | 0.00 | 0.00 | 58 | 1019.6 |
| 20260509183732 | 53 | 19 | 1.0 | 2.0 | 0.00 | 0.00 | 0.00 | 58 | 1019.4 |
| 20260509182230 | 53 | 19 | 0.0 | 0.0 | 0.00 | 0.00 | 0.00 | 58 | 1019.1 |
| 20260509180731 | 53 | 19 | 0.0 | 0.0 | 0.00 | 0.00 | 0.00 | 59 | 1019.1 |
| 20260509175230 | 53 | 19 | 0.0 | 0.0 | 0.00 | 0.00 | 0.00 | 58 | 1018.9 |
| 20260509173731 | 54 | 19 | 0.0 | 0.0 | 0.00 | 0.00 | 0.00 | 57 | 1018.8 |
| 20260509172231 | 54 | 18 | 2.0 | 4.0 | 0.00 | 0.00 | 0.00 | 56 | 1018.7 |
| 20260509170730 | 54 | 18 | 0.0 | 0.0 | 0.00 | 0.00 | 0.00 | 57 | 1018.5 |
| 20260509165231 | 54 | 19 | 1.0 | 1.0 | 0.00 | 0.00 | 0.00 | 57 | 1018.5 |
| 20260509163730 | 54 | 8 | 0.0 | 3.0 | 0.00 | 0.00 | 0.00 | 58 | 1018.5 |
| 20260509162231 | 54 | 5 | 1.0 | 2.0 | 0.00 | 0.00 | 0.00 | 59 | 1018.4 |
| 20260509155230 | 55 | 3 | 0.0 | 0.0 | 0.00 | 0.00 | 0.00 | 57 | 1018.5 |
| 20260509153731 | 56 | 353 | 2.0 | 4.0 | 0.00 | 0.00 | 0.00 | 57 | 1018.3 |
| 20260509150731 | 56 | 17 | 1.0 | 2.0 | 0.00 | 0.00 | 0.00 | 55 | 1018.5 |
| 20260509145230 | 57 | 14 | 1.0 | 3.0 | 0.00 | 0.00 | 0.00 | 55 | 1018.5 |
| 20260509140731 | 58 | 10 | 1.0 | 2.0 | 0.00 | 0.00 | 0.00 | 54 | 1017.7 |
| 20260509135230 | 58 | 12 | 0.0 | 3.0 | 0.00 | 0.00 | 0.00 | 57 | 1017.5 |
| 20260509133730 | 58 | 15 | 0.0 | 1.0 | 0.00 | 0.00 | 0.00 | 56 | 1017.5 |
| 20260509132232 | 59 | 12 | 0.0 | 1.0 | 0.00 | 0.00 | 0.00 | 56 | 1017.3 |
| 20260509130730 | 59 | 12 | 0.0 | 0.0 | 0.00 | 0.00 | 0.00 | 55 | 1017.3 |
| 20260509125230 | 59 | 17 | 1.0 | 2.0 | 0.00 | 0.00 | 0.00 | 56 | 1017.2 |
| 20260509123730 | 60 | 166 | 0.0 | 0.0 | 0.00 | 0.00 | 0.00 | 55 | 1017.0 |
| 20260509122230 | 61 | 166 | 0.0 | 0.0 | 0.00 | 0.00 | 0.00 | 54 | 1017.0 |
| 20260509120730 | 61 | 166 | 0.0 | 0.0 | 0.00 | 0.00 | 0.00 | 53 | 1016.9 |
| 20260509115232 | 62 | 166 | 0.0 | 0.0 | 0.00 | 0.00 | 0.00 | 52 | 1016.9 |
| 20260509113732 | 62 | 166 | 0.0 | 0.0 | 0.00 | 0.00 | 0.00 | 52 | 1016.9 |
| 20260509112231 | 62 | 166 | 0.0 | 1.0 | 0.00 | 0.00 | 0.00 | 52 | 1016.6 |
| 20260509110731 | 63 | 166 | 1.0 | 2.0 | 0.00 | 0.00 | 0.00 | 52 | 1016.4 |
| 20260509105231 | 63 | 166 | 1.0 | 2.0 | 0.00 | 0.00 | 0.00 | 52 | 1016.1 |
| 20260509103731 | 63 | 186 | 1.0 | 3.0 | 0.00 | 0.00 | 0.00 | 50 | 1016.1 |
| 20260509102232 | 64 | 196 | 2.0 | 3.0 | 0.00 | 0.00 | 0.00 | 43 | 1015.8 |
| 20260509085230 | 67 | 247 | 4.0 | 6.0 | 0.00 | 0.00 | 0.00 | 38 | 1014.4 |
| 20260509083731 | 67 | 250 | 6.0 | 7.0 | 0.00 | 0.00 | 0.00 | 37 | 1014.2 |
| 20260509062230 | 72 | 265 | 8.0 | 15.0 | 0.00 | 0.00 | 0.00 | 31 | 1012.0 |
| 20260509053731 | 73 | 228 | 6.0 | 9.0 | 0.00 | 0.00 | 0.00 | 30 | 1011.8 |
| 20260509052231 | 73 | 254 | 8.0 | 11.0 | 0.00 | 0.00 | 0.00 | 30 | 1011.9 |
| 20260509045230 | 74 | 245 | 9.0 | 12.0 | 0.00 | 0.00 | 0.00 | 31 | 1011.6 |
| 20260509043730 | 76 | 273 | 7.0 | 11.0 | 0.00 | 0.00 | 0.00 | 28 | 1011.6 |
| 20260509042230 | 77 | 202 | 4.0 | 8.0 | 0.00 | 0.00 | 0.00 | 28 | 1011.7 |
| 20260509040731 | 76 | 243 | 3.0 | 5.0 | 0.00 | 0.00 | 0.00 | 25 | 1011.6 |
| 20260509035231 | 76 | 151 | 5.0 | 9.0 | 0.00 | 0.00 | 0.00 | 19 | 1011.5 |
| 20260509032230 | 78 | 12 | 2.0 | 2.0 | 0.00 | 0.00 | 0.00 | 18 | 1011.2 |
| 20260509025231 | 76 | 55 | 2.0 | 5.0 | 0.00 | 0.00 | 0.00 | 20 | 1011.2 |
| 20260509022232 | 77 | 94 | 2.0 | 7.0 | 0.00 | 0.00 | 0.00 | 17 | 1011.3 |
| 20260509020732 | 76 | 60 | 2.0 | 3.0 | 0.00 | 0.00 | 0.00 | 18 | 1011.5 |
| 20260509015231 | 77 | 23 | 3.0 | 6.0 | 0.00 | 0.00 | 0.00 | 17 | 1011.5 |
| 20260509012231 | 75 | 39 | 4.0 | 6.0 | 0.00 | 0.00 | 0.00 | 18 | 1011.6 |
| 20260509010731 | 73 | 115 | 5.0 | 7.0 | 0.00 | 0.00 | 0.00 | 29 | 1011.4 |
| 20260509005232 | 73 | 155 | 5.0 | 8.0 | 0.00 | 0.00 | 0.00 | 27 | 1011.2 |
| 20260509003731 | 75 | 271 | 3.0 | 6.0 | 0.00 | 0.00 | 0.00 | 26 | 1010.9 |
| 20260509002231 | 72 | 101 | 3.0 | 4.0 | 0.00 | 0.00 | 0.00 | 26 | 1010.7 |
| 20260508235230 | 72 | 175 | 1.0 | 3.0 | 0.00 | 0.00 | 0.00 | 28 | 1010.2 |
| 20260508233731 | 73 | 215 | 3.0 | 10.0 | 0.00 | 0.00 | 0.00 | 27 | 1010.1 |
| 20260508230731 | 72 | 234 | 2.0 | 3.0 | 0.00 | 0.00 | 0.00 | 22 | 1009.7 |
| 20260508223730 | 69 | 81 | 3.0 | 4.0 | 0.00 | 0.00 | 0.00 | 31 | 1009.3 |
| 20260508222232 | 68 | 163 | 3.0 | 6.0 | 0.00 | 0.00 | 0.00 | 30 | 1009.0 |
| 20260508220732 | 69 | 165 | 3.0 | 4.0 | 0.00 | 0.00 | 0.00 | 31 | 1008.8 |
| 20260508215231 | 67 | 203 | 2.0 | 5.0 | 0.00 | 0.00 | 0.00 | 35 | 1008.7 |
| 20260508212231 | 63 | 264 | 0.0 | 0.0 | 0.00 | 0.00 | 0.00 | 42 | 1008.3 |
| 20260508210731 | 62 | 264 | 0.0 | 0.0 | 0.00 | 0.00 | 0.00 | 44 | 1008.2 |
| 20260508205231 | 60 | 264 | 0.0 | 0.0 | 0.00 | 0.00 | 0.00 | 45 | 1007.6 |
| 20260508203731 | 61 | 264 | 0.0 | 0.0 | 0.00 | 0.00 | 0.00 | 45 | 1007.5 |
| 20260508195232 | 61 | 77 | 4.0 | 7.0 | 0.00 | 0.00 | 0.00 | 45 | 1006.5 |
| 20260508193731 | 61 | 85 | 3.0 | 4.0 | 0.00 | 0.00 | 0.00 | 45 | 1006.2 |
| 20260508190730 | 61 | 41 | 2.0 | 2.0 | 0.00 | 0.00 | 0.00 | 47 | 1005.9 |